KC5TY Weather Reports


time (UTC)temp
C
wind
direction
speed
KPH
gust
KPH
rain 1hr
cm
rain 24hr
cm
rain mn
cm
humidity
%
barometer
mb
20260906231541 35 263 0.0 0.0 0.00 0.00 0.00 17 998.7
20260906230041 35 264 0.0 0.0 0.00 0.00 0.00 17 998.7
20260906224549 35 264 0.0 0.0 0.00 0.00 0.00 18 999.0
20260906223039 35 264 0.0 0.0 0.00 0.00 0.00 17 998.9
20260906221542 35 316 0.0 0.0 0.00 0.00 0.00 17 998.8
20260906220037 35 317 0.0 0.0 0.00 0.00 0.00 16 998.8
20260906214544 35 325 0.0 0.0 0.00 0.00 0.00 17 998.9
20260906213036 36 297 0.0 0.0 0.00 0.00 0.00 15 999.0
20260906211542 36 302 0.0 0.0 0.00 0.00 0.00 15 999.7
20260906210044 36 346 0.0 0.0 0.00 0.00 0.00 14 1000.0
20260906204535 36 347 0.0 0.0 0.00 0.00 0.00 15 1000.4
20260906203032 35 349 0.0 0.0 0.00 0.00 0.00 15 1000.4
20260906201531 36 353 0.0 0.0 0.00 0.00 0.00 16 1000.2
20260906200029 36 349 0.0 0.0 0.00 0.00 0.00 16 1000.6
20260906194528 35 349 0.0 0.0 0.00 0.00 0.00 15 1000.7
20260906193028 35 342 0.0 0.0 0.00 0.00 0.00 14 1001.3
20260906191531 35 345 0.0 0.0 0.00 0.00 0.00 15 1001.4
20260906190028 33 345 0.0 0.0 0.00 0.00 0.00 15 1001.6
20260906184517 33 345 0.0 0.0 0.00 0.00 0.00 16 1002.0
20260906183016 33 354 0.0 0.0 0.00 0.00 0.00 17 1002.4
20260906181529 32 354 0.0 0.0 0.00 0.00 0.00 18 1002.2
20260906180013 33 354 0.0 0.0 0.00 0.00 0.00 19 1002.2
20260906174509 32 354 0.0 0.0 0.00 0.00 0.00 24 1002.8
20260906173007 31 354 0.0 0.0 0.00 0.00 0.00 25 1003.3
20260906171505 31 354 0.0 0.0 0.00 0.00 0.00 25 1003.4
20260906170001 29 354 0.0 0.0 0.00 0.00 0.00 29 1004.1
20260906164614 27 352 0.0 0.0 0.00 0.00 0.00 31 1004.0
20260906163058 27 352 0.0 0.0 0.00 0.00 0.00 31 1004.1
20260906161557 27 0 0.0 0.0 0.00 0.00 0.00 31 1004.1
20260906160054 27 0 0.0 0.0 0.00 0.00 0.00 32 1004.2
20260906154556 26 351 0.0 0.0 0.00 0.00 0.00 32 1004.1
20260906153049 26 349 0.0 0.0 0.00 0.00 0.00 32 1004.3
20260906151552 25 0 0.0 0.0 0.00 0.00 0.00 35 1004.8
20260906150050 23 331 0.0 0.0 0.00 0.00 0.00 36 1005.1
20260906144547 23 298 0.0 0.0 0.00 0.00 0.00 35 1005.1
20260906143105 23 296 0.0 0.0 0.00 0.00 0.00 34 1004.9
20260906141544 22 290 0.0 0.0 0.00 0.00 0.00 35 1004.9
20260906140047 21 285 0.0 0.0 0.00 0.00 0.00 36 1005.4
20260906134550 20 271 0.0 0.0 0.00 0.00 0.00 38 1005.1
20260906133047 20 269 0.0 0.0 0.00 0.00 0.00 38 1005.0
20260906131549 20 270 0.0 0.0 0.00 0.00 0.00 38 1004.2
20260906130046 20 271 0.0 0.0 0.00 0.00 0.00 37 1004.0
20260906124541 20 271 0.0 0.0 0.00 0.00 0.00 37 1004.4
20260906123041 20 271 0.0 0.0 0.00 0.00 0.00 38 1004.4
20260906121544 20 271 0.0 0.0 0.00 0.00 0.00 37 1003.7
20260906120036 21 271 0.0 0.0 0.00 0.00 0.00 37 1003.9
20260906114535 21 271 0.0 0.0 0.00 0.00 0.00 36 1003.7
20260906113042 21 271 0.0 0.0 0.00 0.00 0.00 35 1003.2
20260906111535 21 271 0.0 0.0 0.00 0.00 0.00 35 1002.8
20260906110028 22 271 0.0 0.0 0.00 0.00 0.00 34 1002.8
20260906104526 22 270 0.0 0.0 0.00 0.00 0.00 34 1002.8
20260906103025 22 0 0.0 0.0 0.00 0.00 0.00 34 1002.7
20260906101524 22 271 0.0 0.0 0.00 0.00 0.00 33 1001.9
20260906100023 22 271 0.0 0.0 0.00 0.00 0.00 34 1001.9
20260906094531 22 271 0.0 0.0 0.00 0.00 0.00 33 1002.0
20260906093022 22 271 0.0 0.0 0.00 0.00 0.00 34 1001.8
20260906091527 22 271 0.0 0.0 0.00 0.00 0.00 36 1001.8
20260906090020 22 271 0.0 0.0 0.00 0.00 0.00 35 1001.9
20260906084524 23 271 0.0 0.0 0.00 0.00 0.00 34 1002.0
20260906083022 23 271 0.0 0.0 0.00 0.00 0.00 33 1001.6
20260906081530 23 271 0.0 0.0 0.00 0.00 0.00 33 1002.1
20260906080012 23 271 0.0 0.0 0.00 0.00 0.00 33 1002.3
20260906074511 23 271 0.0 0.0 0.00 0.00 0.00 33 1002.4
20260906073008 23 271 0.0 0.0 0.00 0.00 0.00 32 1002.2
20260906071505 24 271 0.0 0.0 0.00 0.00 0.00 32 1002.2
20260906070002 25 270 0.0 0.0 0.00 0.00 0.00 31 1002.2
20260906064600 25 269 0.0 0.0 0.00 0.00 0.00 29 1001.7
20260906063101 26 271 0.0 0.0 0.00 0.00 0.00 29 1001.6
20260906061557 26 271 0.0 0.0 0.00 0.00 0.00 29 1001.9
20260906060055 26 271 0.0 0.0 0.00 0.00 0.00 30 1001.8
20260906054557 25 271 0.0 0.0 0.00 0.00 0.00 30 1001.9
20260906053054 26 271 0.0 0.0 0.00 0.00 0.00 29 1001.8
20260906051555 26 271 0.0 0.0 0.00 0.00 0.00 29 1002.1
20260906050114 26 271 0.0 0.0 0.00 0.00 0.00 28 1002.2
20260906044556 26 269 0.0 0.0 0.00 0.00 0.00 28 1002.3
20260906043105 26 0 0.0 0.0 0.00 0.00 0.00 28 1002.2
20260906041552 27 269 0.0 0.0 0.00 0.00 0.00 27 1002.9
20260906040051 27 269 0.0 0.0 0.00 0.00 0.00 27 1003.4
20260906034553 27 0 0.0 0.0 0.00 0.00 0.00 27 1003.3
20260906033051 27 0 0.0 0.0 0.00 0.00 0.00 27 1002.8
20260906031549 27 271 0.0 0.0 0.00 0.00 0.00 27 1002.9
20260906030056 27 271 0.0 0.0 0.00 0.00 0.00 27 1002.8
20260906024548 27 271 0.0 0.0 0.00 0.00 0.00 27 1002.6
20260906023052 28 271 0.0 0.0 0.00 0.00 0.00 27 1002.1
20260906021605 28 271 0.0 0.0 0.00 0.00 0.00 26 1003.3
20260906020047 29 0 0.0 0.0 0.00 0.00 0.00 26 1002.7
20260906014546 30 271 0.0 0.0 0.00 0.00 0.00 25 1002.7
20260906013046 30 271 0.0 0.0 0.00 0.00 0.00 25 1002.3
20260906011545 30 0 0.0 0.0 0.00 0.00 0.00 24 1003.2
20260906010045 31 269 0.0 0.0 0.00 0.00 0.00 24 1003.0
20260906004545 31 269 0.0 0.0 0.00 0.00 0.00 24 1003.2
20260906003050 31 269 0.0 0.0 0.00 0.00 0.00 24 1003.0
20260906001542 32 269 0.0 0.0 0.00 0.00 0.00 24 1002.8
20260906000043 32 269 0.0 0.0 0.00 0.00 0.00 24 1002.8
20260905234552 32 267 0.0 0.0 0.00 0.00 0.00 24 1002.9
20260905233042 32 269 0.0 0.0 0.00 0.00 0.00 23 1002.2